Location: Brabourne
(51.1333°N, 1.0000°E)
Time: 14:19:52
(UTC+00:00)

SeaSat 1 - Pass Details

Date: 28 October 2021
Orbit: 743 x 747 km, 108.0° (Epoch: 30 November)

Event Time Altitude Azimuth Distance (km) Brightness Sun altitude
Exits shadow 19:55:49 13° 5° (N) 2,074 4.8 -31.5°
Drops below altitude 10° 19:56:46 10° 355° (N) 2,277 5.2 -31.6°
Sets 19:59:50 0° 335° (NNW) 3,205 6.3 -32.1°
